Flight Track Log - Related Links

Times and Time Zones

All times are in EDT time to prevent confusion due to time zone crossing. See the EJA982 flight status page for this flight to view local times or setup timezone preferences in your user account.

Time Position Orientation Groundspeed Altitude Reporting Facility
EDT Latitude Longitude Course Direction KTS MPH feet Rate Location/Type
Sun 06:17:07 PM 51.1000 -114.0333 220° Southwest 190 219 5,200  Level Edmonton Center
Sun 06:18:07 PM 51.1667 -114.0500 351° North 250 288 7,400 2,300 Climbing Edmonton Center
Sun 06:19:07 PM 51.2333 -114.0167 17° North 300 345 9,800 2,200 Climbing Edmonton Center
Sun 06:20:07 PM 51.2000 -113.9000 114° Southeast 360 414 11,800 2,400 Climbing Edmonton Center
Sun 06:21:07 PM 51.1167 -113.9333 194° South 370 426 14,600 2,750 Climbing Edmonton Center
Sun 06:22:00 PM 50.5762 -114.6431 220° Southwest  Level FlightAware Approximate
Sun 06:22:07 PM 51.0333 -114.0500 221° Southwest 380 437 17,300  Level Edmonton Center
Sun 06:23:07 PM 50.9333 -114.1333 208° Southwest 390 449 19,800 2,350 Climbing Edmonton Center
Sun 06:24:07 PM 50.8500 -114.2500 221° Southwest 400 460 22,000 2,300 Climbing Edmonton Center
Sun 06:25:07 PM 50.7500 -114.3667 216° Southwest 410 472 24,400 2,200 Climbing Edmonton Center
Sun 06:26:07 PM 50.6667 -114.5167 229° Southwest 430 495 26,400 2,000 Climbing Edmonton Center
Sun 06:27:07 PM 50.6000 -114.6333 228° Southwest 440 506 28,400 2,000 Climbing Edmonton Center
Sun 06:28:07 PM 50.4833 -114.7667 216° Southwest 450 518 30,400 2,500 Climbing Edmonton Center
Sun 06:29:07 PM 50.4000 -114.9000 226° Southwest 460 529 33,400 2,922 Climbing Edmonton Center
Sun 06:30:02 PM 50.3167 -114.9667 207° Southwest 450 518 36,000 2,750 Climbing Vancouver Center
Sun 06:31:07 PM 50.2000 -115.1500 225° Southwest 430 495 38,900 1,920 Climbing Edmonton Center
Sun 06:32:07 PM 50.1167 -115.3000 229° Southwest 420 483 40,000 550 Climbing Edmonton Center
Sun 06:33:07 PM 50.0333 -115.4333 226° Southwest 450 518 40,000  Level Edmonton Center
Sun 06:34:07 PM 49.9333 -115.5667 221° Southwest 470 541 40,000  Level Edmonton Center
Sun 06:35:07 PM 49.8333 -115.7000 221° Southwest 490 564 40,000  Level Edmonton Center
Sun 06:36:07 PM 49.7333 -115.8333 221° Southwest 500 575 40,000  Level Edmonton Center
Sun 06:37:07 PM 49.6167 -115.9833 220° Southwest 500 575 40,000  Level Edmonton Center
Sun 06:38:07 PM 49.5167 -116.1500 227° Southwest 490 564 40,000  Level Edmonton Center
Sun 06:39:07 PM 49.4667 -116.3167 245° Southwest 490 564 40,000  Level Edmonton Center
Sun 06:40:07 PM 49.4000 -116.5167 243° Southwest 490 564 40,000  Level Edmonton Center
Sun 06:41:07 PM 49.3500 -116.7000 247° West 490 564 40,000  Level Edmonton Center
Sun 06:42:07 PM 49.2833 -116.9000 243° Southwest 490 564 40,000  Level Edmonton Center
Sun 06:43:07 PM 49.2167 -117.0833 241° Southwest 490 564 40,000  Level Edmonton Center
Sun 06:44:07 PM 49.1667 -117.2500 245° Southwest 490 564 40,000  Level Edmonton Center
Sun 06:45:02 PM 49.1167 -117.4000 243° Southwest 490 564 40,000  Level Vancouver Center
Sun 06:46:02 PM 49.0667 -117.5833 247° West 490 564 40,000  Level Vancouver Center
Sun 06:47:02 PM 49.0167 -117.7667 247° West 490 564 40,000  Level Vancouver Center
Sun 06:48:02 PM 48.9500 -117.9500 241° Southwest 490 564 40,000  Level Vancouver Center
Sun 06:49:02 PM 48.8833 -118.1333 241° Southwest 490 564 40,000  Level Vancouver Center
Sun 06:50:02 PM 48.8167 -118.3167 241° Southwest 490 564 40,000  Level Vancouver Center
Sun 06:50:27 PM 48.8297 -118.3942 284° West 490 564 40,000  Level Seattle Center
Sun 06:51:28 PM 48.7694 -118.5778 244° Southwest 488 562 40,000  Level Seattle Center
Sun 06:52:02 PM 48.7000 -118.6833 225° Southwest 490 564 40,000  Level Vancouver Center
Sun 06:53:02 PM 48.6500 -118.8667 248° West 490 564 40,000  Level Vancouver Center
Sun 06:53:31 PM 48.6339 -118.9833 258° West 492 566 40,000  Level Seattle Center
Sun 06:54:32 PM 48.5719 -119.1669 243° Southwest 493 567 40,000  Level Seattle Center
Sun 06:55:33 PM 48.5094 -119.3500 243° Southwest 493 567 40,000  Level Seattle Center
Sun 06:56:34 PM 48.4481 -119.5308 243° Southwest 489 563 40,000 -541 Level Seattle Center
Sun 06:57:35 PM 48.3847 -119.7106 242° Southwest 489 563 38,900 -1,770 Descending Seattle Center
Sun 06:58:36 PM 48.3236 -119.8839 242° Southwest 478 550 36,400 -2,323 Descending Seattle Center
Sun 06:59:39 PM 48.2672 -120.0517 243° Southwest 460 529 34,100 -2,613 Descending Seattle Center
Sun 07:00:40 PM 48.1892 -120.2656 241° Southwest 478 550 31,000 -2,780 Descending Seattle Center
Sun 07:01:42 PM 48.1286 -120.4425 243° Southwest 485 558 28,400 -2,488 Descending Seattle Center
Sun 07:02:43 PM 48.0667 -120.6144 242° Southwest 471 542 25,900 -2,361 Descending Seattle Center
Sun 07:03:44 PM 48.0083 -120.7736 241° Southwest 445 512 23,600 -2,311 Descending Seattle Center
Sun 07:04:45 PM 47.9458 -120.9458 242° Southwest 438 504 21,200 -2,262 Descending Seattle Center
Sun 07:05:46 PM 47.8911 -121.0978 242° Southwest 425 489 19,000 -2,164 Descending Seattle Center
Sun 07:06:47 PM 47.8558 -121.2539 251° West 400 460 16,800 -2,207 Descending Seattle Center
Sun 07:07:13 PM 47.8625 -121.3308 277° West 381 438 15,800 -1,967 Descending Seattle Center
Sun 07:07:48 PM 47.8672 -121.4078 275° West 374 430 14,800 -1,964 Descending Seattle Center
Sun 07:08:08 PM 47.8714 -121.4681 276° West 352 405 14,000 -1,770 Descending Seattle Center
Sun 07:08:49 PM 47.8761 -121.5489 275° West 348 400 13,000 -1,588 Descending Seattle Center
Sun 07:09:50 PM 47.8814 -121.6772 274° West 314 361 11,300 -1,820 Descending Seattle Center
Sun 07:10:51 PM 47.8567 -121.7872 252° West 283 326 9,300 -2,213 Descending Seattle Center
Sun 07:11:52 PM 47.8261 -121.9211 251° West 289 333 6,800 -2,213 Descending Seattle Center
Sun 07:12:53 PM 47.7983 -122.0294 249° West 276 318 4,800 -1,377 Descending Seattle Center
Sun 07:13:54 PM 47.7742 -122.1228 249° West 241 277 4,000 -1,037 Descending Seattle Center
Sun 07:14:14 PM 47.7678 -122.1489 250° West 199 229 3,400 -984 Descending Seattle Center
Sun 07:14:55 PM 47.7542 -122.2019 249° West 209 241 3,000 -393 Descending Seattle Center
Sun 07:15:15 PM 47.7481 -122.2292 252° West 213 245 3,000 -492 Level Seattle Center
Sun 07:15:56 PM 47.7325 -122.2844 247° West 213 245 2,500 -471 Descending Seattle Center
Sun 07:16:57 PM 47.7122 -122.3669 250° West 201 231 2,200 -148 Descending Seattle Center
Sun 07:17:58 PM 47.6731 -122.4189 222° Southwest 208 239 2,200  Level Seattle Center
Sun 07:18:18 PM 47.6564 -122.4117 164° South 209 241 2,200 -393 Level Seattle Center
Sun 07:18:59 PM 47.6217 -122.3814 150° Southeast 204 235 1,800 -590 Descending Seattle Center
Sun 07:19:19 PM 47.6081 -122.3694 149° Southeast 199 229 1,600 -885 Descending Seattle Center
Sun 07:20:00 PM 47.5786 -122.3442 150° Southeast 183 211 900 -984 Descending Seattle Center
Sun 07:20:20 PM 47.5683 -122.3353 150° Southeast 140 161 600 -492 Descending Seattle Center
Sun 07:21:01 PM 47.5522 -122.3208 149° Southeast 133 153 400 -294 Descending Seattle Center
Sun 07:22:02 PM 47.5169 -122.2925 152° Southeast 132 152 100 -295 Descending Seattle Center
Sun 07:24:00 PM 47.5167 -122.3000 247° West  Level FlightAware Approximate
Sun 07:31:00 PM 47.5300 -122.3020 247° West  Level Estimated

Login

Don't have an account? Register now (free) for customized features, flight alerts, and more!